Regional Weather Roundup
Issued by NWS Grand Forks, ND

Home | Current Version | Previous Version | Graphics & Text | Print | Product List | Glossary On
Versions: 1 2 3 4 5 6 7 8 9 10 11 12 13 14 15 16 17 18 19 20 21 22 23 24 25 26 27 28 29 30 31 32 33 34 35 36 37 38 39 40 41 42 43 44 45 46 47 48 49 50
000
ASUS43 KFGF 271410
RWRFGF
PRAIRIE TO PINES  WEATHER ROUNDUP
NATIONAL WEATHER SERVICE EASTERN NORTH DAKOTA/GRAND FORKS ND
900 AM CDT THU APR 27 2017

 **SATELLITE DATA USED TO AUGMENT SKY COVER AT AUTOMATED STATIONS**
 *****  WEATHER ACROSS EASTERN NORTH DAKOTA  *****

CITY           SKY/WX    TMP DP  RH WIND       PRES   REMARKS
GRAND FORKS    PTSUNNY   27  23  85 N8        29.72F WCI  19
GRAND FRKS AFB FAIR      29  21  72 N9        29.72F WCI  21
DEVILS LAKE    FAIR      32  19  58 N13       29.74S WCI  22
FARGO          MIX PCPN  27  22  81 N13       29.70R WCI  16
WAHPETON ARPT  CLOUDY    28  21  74 N17       29.67F WCI  16
$$

 ***** WEATHER ACROSS CENTRAL AND WESTERN NORTH DAKOTA  *****

CITY           SKY/WX    TMP DP  RH WIND       PRES   REMARKS
BISMARCK       CLOUDY    34  24  67 N6        29.75F
MINOT          FAIR      33  24  69 N7        29.77S
JAMESTOWN      FAIR      32  23  69 N10       29.72S WCI  24
MINOT AFB      FAIR      32  23  70 NE9       29.77S WCI  24
GARRISON         N/A     33  23  66 NE7       29.75F
WILLISTON      FAIR      35  27  72 NE7       29.78R
DICKINSON      FAIR      30  26  85 SE6       29.70S WCI  24
HETTINGER      CLOUDY    30  26  85 E5        29.71S
$$

 *****  OTHER AIRPORT OBSERVATIONS IN OUR AREA  *****

CITY           SKY/WX    TMP DP  RH WIND       PRES   REMARKS
WALHALLA       NOT AVBL
GRAFTON AIRPOR FAIR      30  23  74 CALM      29.75F
VALLEY CITY AR FAIR      27  25  93 N14       29.72S WCI  15
CANDO          NOT AVBL
CAVALIER APRT  FAIR      32  18  55 N14       29.74F WCI  22
GWINNER        CLOUDY    28  25  86 MISG      29.70R
SHEYENNE NWR     N/A     27  22  81 N10       29.95  WCI  17
ROLLA          FAIR      30  19  64 N14       29.77R WCI  20
 ***** THE ABOVE OBSERVATIONS ARE NON NWS ARE NOT QUALITY
       CONTROLLED AND MAY MIS-REPORT RAIN FOR SNOW...
$$

  *****  WEATHER ACROSS NORTHERN MINNESOTA  *****

CITY           SKY/WX    TMP DP  RH WIND       PRES   REMARKS
FLAG ISLAND    CLOUDY    25  19  80 N20       29.67F WCI  11
WARROAD        PTSUNNY   27  21  80 N14G20    29.68F WCI  15
ROSEAU         CLOUDY    27  21  80 N10       29.69S WCI  17
HALLOCK        CLOUDY    30  23  74 N8        29.73F WCI  23
THF RVR FALLS  CLOUDY    28  22  78 N14       29.69F WCI  17
BAUDETTE       CLOUDY    24  15  68 N10       29.64S WCI  14
WASKISH        CLOUDY    25  18  74 N10       29.63S WCI  15
CROOKSTON      CLOUDY    27  23  86 N13       29.71F WCI  16
STEPHEN NDAWN    N/A     27  23  86 N7          N/A  WCI  19
GREENBUSH NDAW   N/A     25  25 100 N10         N/A  WCI  15
$$
  *****  WEATHER ACROSS CENTRAL AND WEST MINNESOTA  *****

CITY           SKY/WX    TMP DP  RH WIND       PRES   REMARKS
FOSSTON        CLOUDY    23  18  80 N15       29.66S WCI  10
BEMIDJI        CLOUDY    22  18  85 N13G20    29.61S WCI  10
PARK RAPIDS    CLOUDY    24  14  65 N20G25    29.59S WCI  10
ELBOW LAKE     CLOUDY    28  24  87 W16       29.62F WCI  15
WADENA         CLOUDY    25  19  80 N10       29.59S WCI  15
DETROIT LAKES  PTSUNNY   27  23  86 N8G17     29.64R WCI  18
MOORHEAD       FAIR      25  21  86 N7        29.70S WCI  17
FERGUS FALLS   CLOUDY    27  21  80 N12G21    29.65S WCI  16
MORRIS MN      PTSUNNY   28  25  86 N17G23    29.62R WCI  16
STAPLES        CLOUDY    25  19  80 N8        29.59S WCI  16
$$
  *****  WEATHER ELSEWHERE ACROSS MINNESOTA  *****

CITY           SKY/WX    TMP DP  RH WIND       PRES   REMARKS
DULUTH         CLOUDY    24  20  84 N13       29.49S WCI  12
INTRNTL FALLS  CLOUDY    23  14  68 N9        29.60F WCI  13
ELY            FLURRIES  19  14  79 N9G16     29.50F WCI   9
CLOQUET        CLOUDY    23  19  86 NW13      29.51S WCI  11
WHEATON        PTSUNNY   28  21  74 NW18      29.68F WCI  16
BRAINERD       CLOUDY    25  18  74 N9        29.57S WCI  15
HIBBING        CLOUDY    21  16  81 N13       29.52F WCI   9
ALEXANDRIA     CLOUDY    27  20  75 N15       29.59S WCI  15
SAINT CLOUD    CLOUDY    29  25  85 N9        29.56S WCI  20
MINNEAPOLIS    CLOUDY    33  28  81 NW14      29.54S WCI  23
$$

  *****  WEATHER ACROSS SOUTH DAKOTA  *****

CITY           SKY/WX    TMP DP  RH WIND       PRES   REMARKS
SIOUX FALLS    CLOUDY    32  26  78 NW16      29.67R WCI  21
BROOKINGS      PTSUNNY   30  24  78 N16       29.64S WCI  19
WATERTOWN      CLOUDY    29  24  82 N18G24    29.64S WCI  16
HURON          CLOUDY    33  25  72 N18       29.71R WCI  22
SISSETON         N/A     29  24  82 N22G28    29.67S WCI  15
ABERDEEN       CLOUDY    31  24  75 N15       29.72S WCI  20
MITCHELL       CLOUDY    33  26  75 N14       29.72R WCI  23
PIERRE         CLOUDY    34  27  75 N8        29.71R
MOBRIDGE       CLOUDY    36  25  64 N8        29.70S
RAPID CITY     FAIR      32  29  88 E6        29.65S
$$

  *****  SOME WEATHER IN NEARBY STATES *****

CITY           SKY/WX    TMP DP  RH WIND       PRES   REMARKS
GLASGOW MT     CLOUDY    37  24  59 E16       29.68R
GREAT FALLS MT CLOUDY    39  35  86 SW7       29.63R
CHEYENNE WY    LGT RAIN  38  33  82 VRB5      29.59R
SCOTTSBLUFF NE FAIR      39  35  86 E14       29.58R
OMAHA NE       CLOUDY    38  29  70 NW13      29.73R
DES MOINES IA  CLOUDY    38  29  70 NW16      29.66R
DAVENPORT IA   CLOUDY    39  35  86 W20G29    29.58R
CHICAGO IL     CLOUDY    47  43  86 W21G33    29.47R
EAU CLAIRE WI  CLOUDY    32  28  85 NW12      29.48S WCI  23
LA CROSSE WI   CLOUDY    38  31  76 NW13G22   29.49R
$$

  *****  SOME NATIONAL WEATHER *****

CITY           SKY/WX    TMP DP  RH WIND       PRES   REMARKS
LA GUARDIA NY  CLOUDY    62  58  86 S7        29.92S FOG
RALEIGH NC     PTSUNNY   71  63  75 SW13      29.93S
ATLANTA GA     CLOUDY    69  66  90 S13G22    29.80S
NEW ORLEANS LA PTSUNNY   67  59  75 NW8       29.83R
OKLAHOMA CITY  PTSUNNY   49  45  86 S7        29.74R
ALBUQUERQUE NM FAIR      55  27  34 W9        29.73S
SALT LAKE CITY FAIR      44  31  60 NW15      29.83R
LOS ANGELES CA MOCLDY    58  56  93 NE3       29.82R
BOISE ID       PTSUNNY   39  33  79 W8        29.92R
SEATTLE WA     MOCLDY    44  38  79 S10       30.06R
$$

*** WEATHER ACROSS MANITOBA...SASKATCHEWAN AND ONTARIO ***
                ***ONTARIO***

CITY           SKY/WX    TMP DP  RH WIND       PRES   REMARKS
GERALDTON      LGT SNOW  21  19  93 N9G21     29.48F VSB 1   WCI  11
THUNDER BAY    CLOUDY    21  18  86 N12       29.49F WCI   9
SIOUX LOOKOUT  LGT SNOW  19  14  79 NE8G17    29.63F DRFTSNOWWCI   9
TORONTO        PTSUNNY   66  57  72 SE8       29.65F
BIG TROUT LK   PTSUNNY   21   5  49 NE10G22   29.94F WCI  10
PICKLE LAKE    LGT SNOW  18  14  86 NE10G21   29.69F VSB 1   WCI   6
DRYDEN         FLURRIES  19  14  79 NE14G23   29.62F WCI   6
KENORA         LGT SNOW  23  18  80 N12       29.66F DRFTSNOWWCI  12
$$
                *** MANITOBA***

CITY           SKY/WX    TMP DP  RH WIND       PRES   REMARKS
BRANDON        MOSUNNY   32  14  47 NE10      29.82S WCI  24
DAUPHIN        SUNNY     32  21  64 NE7       29.89S
ISLAND LAKE    NOT AVBL
PILOT MOUND      N/A     32  16  51 N12         N/A  WCI  23
THE PAS        CLOUDY    30  16  55 VRB5      29.98F
THOMPSON       MOSUNNY   27   5  39 N2        30.07S
WINNIPEG       MOSUNNY   34  18  51 N17       29.77F WCI  23
LYNN LAKE      SUNNY     27   7  43 SE2       30.02F
CHURCHILL      MOSUNNY   21   5  49 SW8       30.13F WCI  12
GILLAM         MOSUNNY   23   5  46 NE3       30.12F
$$
                ***SASKATCHEWAN***

CITY           SKY/WX    TMP DP  RH WIND       PRES   REMARKS
ESTEVAN        MOSUNNY   34  23  64 E6        29.80S
KINDERSLEY     CLOUDY    32  30  93 SE13      29.69R WCI  22
LLOYDMINSTER   LGT SNOW  28  28 100 E12       29.78S WCI  18
PRINCE ALBERT  PTSUNNY   34  19  55 E12       29.88S
REGINA         MOSUNNY   34  21  60 SE13      29.81S WCI  25
YORKTON        SUNNY     32  21  64 NE7       29.86S
N. BATTLEFORD  LGT SNOW  32 N/A N/A E20G25    29.80R WCI  20
LA RONGE       MOSUNNY   30  12  47 NE9       29.95S WCI  22
SASKATOON      CLOUDY    34  23  64 SE14      29.83S WCI  24
SWIFT CURRENT  CLOUDY    34  25  69 SE18      29.67S WCI  23
$$
NOTE: THESE ARE AUTOMATED STATIONS WITH LIMITED QUALITY CONTROL
      "FAIR" INDICATES FEW OR NO CLOUDS BELOW 12,000 FEET WITH NO
      SIGNIFICANT WEATHER AND/OR OBSTRUCTIONS TO VISIBILITY.
      SKY/WX - SKY CONDITION AND SIGNIFICANT WEATHER.
      TMP - AIR TEMPERATURE.    DP   - DEWPOINT TEMPERATURE.
      RH  - RELATIVE HUMIDITY.  PRES - PRESSURE.
      HX  - HEAT INDEX.         WCI  - WIND CHILL INDEX.
$




USA.gov is the U.S. government's official web portal to all federal, state and local government web resources and services.